Cloud_Cover
99 0 98 100 79 7 87 61 100 100 100 100 100 100 100 100 100 100 60 1 4 1 0 0 0 0 0 0 0 0 0 0 0 0 20 84 100 100 20 90 5 5 73 97
87 45 100 86 5 5 25 100 100 100 100 100 100 100 100 100 100 100 72 0 1 0 0 0 0 0 0 0 0 0 0 0 0 0 5 32 95 17 97 100 100 37 42 98
68 100 100 35 86 93 100 100 100 100 100 100 100 100 100 100 100 100 1 26 5 0 0 0 0 0 0 0 0 0 0 0 0 0 0 6 5 99 75 97 100 10 59 100
97 100 100 100 99 100 100 100 100 100 100 100 98 100 100 100 61 26 59 100 8 0 0 0 0 0 0 0 0 0 0 0 16 0 2 5 100 33 81 94 7 15 96 86
100 100 100 88 100 100 100 100 100 100 100 100 100 100 8 66 94 2 46 3 0 0 0 0 0 0 0 0 0 0 0 0 0 0 4 14 100 100 97 100 36 7 30 53
100 100 99 100 100 100 100 100 100 100 100 100 100 100 78 4 4 17 0 0 0 0 0 0 0 0 0 0 0 0 0 0 0 89 0 19 94 100 58 99 100 91 19 57
100 100 100 100 100 100 100 100 100 100 100 99 37 20 60 2 40 81 3 2 0 0 0 0 0 0 0 0 0 0 0 0 34 19 0 39 100 100 100 30 86 100 84 63
100 100 100 100 100 100 100 100 100 100 98 7 0 6 5 58 81 7 4 11 3 0 0 0 0 0 0 0 0 0 0 0 26 1 0 18 100 100 100 50 24 100 80 67
87 97 100 100 100 100 94 74 74 5 68 66 11 13 5 68 6 73 4 100 12 0 0 0 0 1 0 0 0 0 0 0 0 0 0 70 100 100 97 91 98 44 90 90
0 0 3 15 11 5 27 79 54 5 45 5 0 3 5 75 5 5 2 2 0 0 0 0 4 42 4 0 0 0 0 0 0 0 1 4 100 100 100 56 100 87 23 95
0 0 0 0 0 2 5 0 84 59 43 0 0 0 0 19 39 6 4 0 0 0 1 0 5 86 4 0 0 0 0 0 0 0 0 46 100 100 100 100 100 100 79 100
0 0 0 0 0 0 0 0 10 56 7 0 0 1 0 13 15 7 58 0 0 0 0 0 3 4 0 0 0 0 0 0 0 0 1 48 100 100 100 100 100 100 86 100
1 0 0 0 0 3 1 1 2 100 70 0 0 0 93 16 8 29 5 4 0 0 0 0 0 0 0 0 0 0 0 0 0 0 0 94 64 77 100 100 96 84 100 100
6 0 0 0 11 47 32 3 5 15 5 2 2 1 79 78 5 6 49 0 0 0 0 0 0 6 0 0 0 0 0 0 0 0 5 39 5 100 100 100 93 84 88 95
68 13 0 0 0 0 0 0 0 0 0 1 0 1 5 32 72 20 5 5 5 0 0 0 0 5 0 0 0 0 0 0 0 0 1 46 5 96 100 100 100 39 96 48
5 5 0 0 0 0 4 4 0 0 0 0 0 0 46 14 45 7 6 40 5 0 0 0 0 0 0 0 0 0 0 0 0 0 0 12 1 11 100 100 100 100 100 79
5 6 13 0 0 0 16 79 11 3 0 0 1 91 9 95 94 18 21 61 5 0 0 0 0 0 0 4 1 0 0 0 0 0 0 2 27 7 14 100 100 100 100 100
5 4 5 9 1 1 0 4 5 4 2 0 2 43 94 8 69 83 20 5 6 0 0 0 0 0 0 0 4 0 0 0 0 0 0 0 4 16 8 76 81 100 100 100
5 5 5 3 2 0 4 1 5 3 9 2 5 51 100 19 86 74 92 5 73 5 0 0 0 0 0 0 0 4 2 0 0 0 0 0 5 7 4 6 5 10 100 100
10 6 39 6 2 0 4 5 2 9 6 5 4 18 100 33 5 5 5 10 81 5 0 0 0 0 0 0 0 0 19 12 0 0 0 0 0 34 37 52 0 6 55 88
100 100 8 57 12 4 100 10 81 37 42 5 7 15 52 92 5 5 2 21 98 23 2 0 0 0 0 0 0 0 0 5 0 0 0 0 0 0 0 1 5 8 5 5
86 100 100 22 97 27 55 100 6 34 6 1 5 2 6 96 5 4 2 92 94 100 5 0 0 0 0 0 0 0 0 5 3 0 0 0 0 0 0 0 0 0 0 3
96 100 98 32 86 29 100 100 92 1 0 21 0 4 1 19 4 1 5 42 100 100 11 2 0 0 0 0 0 0 0 0 0 0 0 0 0 0 0 0 0 0 0 0
100 94 5 27 79 100 100 100 96 94 4 10 5 5 4 78 5 0 0 5 28 100 10 5 0 0 0 0 0 0 0 0 1 0 0 0 0 0 0 0 0 0 0 0
100 100 100 96 67 100 100 100 100 100 86 5 2 0 4 80 7 0 0 5 89 51 5 5 2 0 1 0 0 0 0 0 0 3 0 0 0 0 0 0 0 0 0 0
100 98 38 99 92 96 100 100 10 99 43 4 3 3 5 8 5 5 5 5 64 86 5 5 5 0 0 0 0 0 0 0 0 0 0 0 0 0 0 0 0 5 0 0